TimeMDT,TemperatureF,Dew PointF,Humidity,Sea Level PressureIn,VisibilityMPH,Wind Direction,Wind SpeedMPH,Gust SpeedMPH,PrecipitationIn,Events,Conditions,WindDirDegrees,DateUTC
12:56 AM,32.0,30.0,92,29.83,-9999.0,Calm,Calm,-,N/A,,Unknown,0,2013-10-03 06:56:00
1:56 AM,36.0,30.9,82,29.77,-9999.0,Variable,4.6,-,N/A,,Unknown,0,2013-10-03 07:56:00
2:56 AM,33.1,30.9,92,29.79,-9999.0,Calm,Calm,-,0.03,,Unknown,0,2013-10-03 08:56:00
3:56 AM,30.9,28.9,92,29.80,-9999.0,Variable,5.8,-,0.17,,Unknown,0,2013-10-03 09:56:00
4:56 AM,30.0,28.9,96,29.81,-9999.0,Calm,Calm,-,N/A,,Unknown,0,2013-10-03 10:56:00
5:56 AM,30.9,30.0,96,29.78,-9999.0,Calm,Calm,-,0.01,,Unknown,0,2013-10-03 11:56:00
6:56 AM,30.9,30.0,96,29.83,-9999.0,Calm,Calm,-,0.05,,Unknown,0,2013-10-03 12:56:00
7:56 AM,30.9,28.9,92,29.84,-9999.0,Calm,Calm,-,N/A,,Unknown,0,2013-10-03 13:56:00
8:56 AM,30.9,30.0,96,29.84,-9999.0,West,3.5,-,0.02,,Unknown,280,2013-10-03 14:56:00
9:56 AM,30.0,28.9,96,29.84,-9999.0,Calm,Calm,-,0.13,,Unknown,0,2013-10-03 15:56:00
10:56 AM,30.9,28.9,92,29.86,-9999.0,Variable,3.5,-,N/A,,Unknown,0,2013-10-03 16:56:00
11:56 AM,30.0,27.0,88,29.91,-9999.0,WNW,4.6,-,0.01,,Unknown,290,2013-10-03 17:56:00
12:56 PM,28.9,26.1,89,29.94,-9999.0,Variable,3.5,-,0.04,,Unknown,0,2013-10-03 18:56:00
1:56 PM,28.0,25.0,88,29.93,-9999.0,Variable,4.6,-,0.03,,Unknown,0,2013-10-03 19:56:00
2:56 PM,28.0,26.1,92,29.97,-9999.0,WNW,4.6,-,0.03,,Unknown,290,2013-10-03 20:56:00
3:56 PM,28.0,25.0,88,29.99,-9999.0,Variable,3.5,-,0.05,,Unknown,0,2013-10-03 21:56:00
4:56 PM,27.0,24.1,89,30.01,-9999.0,WNW,8.1,-,0.05,,Unknown,300,2013-10-03 22:56:00
5:56 PM,27.0,24.1,89,30.05,-9999.0,Variable,5.8,-,0.03,,Unknown,0,2013-10-03 23:56:00
6:56 PM,26.1,21.9,84,30.06,-9999.0,Variable,5.8,-,0.03,,Unknown,0,2013-10-04 00:56:00
7:56 PM,24.1,21.0,88,30.12,-9999.0,Variable,6.9,-,N/A,,Unknown,0,2013-10-04 01:56:00
8:56 PM,24.1,21.0,88,30.14,-9999.0,Variable,3.5,-,0.02,,Unknown,0,2013-10-04 02:56:00
10:56 PM,23.0,19.0,85,30.17,-9999.0,Variable,4.6,-,N/A,,Unknown,0,2013-10-04 04:56:00
11:56 PM,21.9,18.0,85,30.17,-9999.0,NNW,8.1,-,N/A,,Unknown,340,2013-10-04 05:56:00